This demonstration page uses our WeatherBlox Daily Observations layout. Learn more.

40.92945, -100.16068

Hourly Observations for April 11, 2017

Temp ( °F °C ) Dew Point ( °F °C ) Humidity (%) Winds ( mph kmh ) Pressure ( in mb ) Visibility ( mi km ) Precip ( " mm )
12:15 am 00:15 Clear 33 0.8 29 -1.6 84 84 E 6 9 30.3 1026 10 16.0934 0 0
12:35 am 00:35 Clear 34 0.9 30 -1.3 85 85 ESE 3 6 30.33 1027 10 16.0934 0 0
12:55 am 00:55 Clear 33 0.5 29 -1.7 85 85 ESE 3 6 30.33 1027 10 16.0934 0 0
1:15 am 01:15 Clear 33 0.3 29 -1.8 86 86 E 5 7 30.3 1026 10 16.0934 0 0
1:35 am 01:35 Clear 33 0.4 30 -1.3 89 89 SSE 6 9 30.33 1027 10 16.0934 0 0
1:55 am 01:55 Clear 32 0 29 -1.8 88 88 Calm 30.33 1027 10 16.0934 0 0
2:15 am 02:15 Clear 32 0.1 29 -1.4 90 90 Calm 30.33 1027 10 16.0934 0 0
2:35 am 02:35 Clear 29 -1.5 27 -2.8 91 91 Calm 30.36 1028 10 16.0934 0 0
2:55 am 02:55 Clear 30 -1.2 28 -2.3 92 92 Calm 30.33 1027 10 16.0934 0 0
3:15 am 03:15 Clear 29 -1.6 27 -2.7 92 92 Calm 30.33 1027 10 16.0934 0 0
3:35 am 03:35 Clear 29 -1.9 27 -2.9 93 93 ENE 6 9 30.33 1027 10 16.0934 0 0
3:55 am 03:55 Clear 29 -1.5 28 -2.5 93 93 Calm 30.33 1027 10 16.0934 0 0
4:15 am 04:15 Clear 29 -1.5 28 -2.5 93 93 Calm 30.33 1027 10 16.0934 0 0
4:35 am 04:35 Clear 28 -2.5 26 -3.5 93 93 SW 5 7 30.33 1027 10 16.0934 0 0
4:55 am 04:55 Clear 28 -2.1 26 -3.1 93 93 SW 3 6 30.36 1028 10 16.0934 0 0
5:15 am 05:15 Clear 28 -2.2 26 -3.2 93 93 Calm 30.36 1028 10 16.0934 0 0
5:35 am 05:35 Clear 29 -1.8 27 -2.7 94 94 Calm 30.36 1028 10 16.0934 0 0
5:55 am 05:55 Clear 27 -2.9 25 -3.9 93 93 Calm 30.36 1028 10 16.0934 0 0
6:15 am 06:15 Clear 27 -2.6 26 -3.5 94 94 Calm 30.36 1028 10 16.0934 0 0
6:35 am 06:35 Clear 27 -2.9 25 -3.8 94 94 Calm 30.39 1029 10 16.0934 0 0
6:55 am 06:55 Clear 27 -3 25 -3.8 94 94 Calm 30.42 1030 10 16.0934 0 0
7:15 am 07:15 Sunny 27 -2.6 26 -3.5 94 94 Calm 30.39 1029 10 16.0934 0 0
7:35 am 07:35 Sunny 26 -3.1 25 -4 94 94 Calm 30.42 1030 10 16.0934 0 0
7:55 am 07:55 Sunny 28 -2.2 26 -3.1 94 94 Calm 30.39 1029 10 16.0934 0 0
8:15 am 08:15 Sunny 30 -1.1 29 -1.9 94 94 Calm 30.39 1029 10 16.0934 0 0
8:35 am 08:35 Sunny 32 0 31 -0.7 95 95 Calm 30.36 1028 10 16.0934 0 0
8:55 am 08:55 Sunny 36 2.4 33 0.8 89 89 S 5 7 30.36 1028 10 16.0934 0 0
9:15 am 09:15 Sunny 39 3.9 34 1.2 83 83 SW 5 7 30.33 1027 10 16.0934 0 0
9:35 am 09:35 Sunny 42 5.3 36 2.2 81 81 SSW 12 19 30.36 1028 10 16.0934 0 0
9:55 am 09:55 Sunny 43 6 35 1.8 75 75 SW 13 20 30.36 1028 10 16.0934 0 0
10:15 am 10:15 Sunny 45 7 36 2.1 71 71 SSW 10 17 30.33 1027 10 16.0934 0 0
10:35 am 10:35 Sunny 46 8 36 2 66 66 SW 13 20 30.33 1027 10 16.0934 0 0
10:55 am 10:55 Sunny 48 9 37 2.6 65 65 SSW 10 17 30.3 1026 10 16.0934 0 0
11:15 am 11:15 Sunny 51 10.3 37 2.8 60 60 SSW 14 22 30.27 1025 10 16.0934 0 0
11:35 am 11:35 Sunny 53 11.5 37 2.6 55 55 SSW 15 24 30.27 1025 10 16.0934 0 0
11:55 am 11:55 Sunny 55 12.5 37 2.7 52 52 SSW 14 22 30.21 1023 10 16.0934 0 0
12:15 pm 12:15 Sunny 56 13.2 37 3 50 50 S 15 24 30.21 1023 10 16.0934 0 0
12:35 pm 12:35 Sunny 57 14 37 2.5 46 46 SSW 14 22 30.21 1023 10 16.0934 0 0
12:55 pm 12:55 Sunny 59 14.8 37 2.6 44 44 S 14 22 30.18 1022 10 16.0934 0 0
1:15 pm 13:15 Sunny 60 15.8 36 2.3 40 40 S 16 26 30.15 1021 10 16.0934 0 0
1:35 pm 13:35 Sunny 62 16.5 36 2.2 38 38 SSW 22 35 30.15 1021 10 16.0934 0 0
1:55 pm 13:55 Sunny 63 17.3 35 1.7 35 35 SSW 21 33 30.12 1020 10 16.0934 0 0
2:15 pm 14:15 Sunny 64 17.8 35 1.9 35 35 SSW 20 31 30.12 1020 10 16.0934 0 0
2:35 pm 14:35 Sunny 65 18.2 35 1.9 34 34 SSW 22 35 30.06 1018 10 16.0934 0 0
2:55 pm 14:55 Sunny 66 18.7 36 2.1 33 33 SSW 20 31 30.06 1018 10 16.0934 0 0
3:15 pm 15:15 Sunny 67 19.3 36 2.1 32 32 S 21 33 30.03 1017 10 16.0934 0 0
3:35 pm 15:35 Sunny 68 19.8 36 2 31 31 SSW 17 28 30.03 1017 10 16.0934 0 0
3:55 pm 15:55 Sunny 67 19.7 35 1.4 30 30 SSW 18 30 30.03 1017 10 16.0934 0 0
4:15 pm 16:15 Sunny 68 20.2 35 1.5 29 29 SW 14 22 30.03 1017 10 16.0934 0 0
4:35 pm 16:35 Sunny 69 20.3 34 1 28 28 SSW 12 19 30 1016 10 16.0934 0 0
4:55 pm 16:55 Sunny 69 20.8 36 2 29 29 SSW 14 22 29.97 1015 10 16.0934 0 0
5:15 pm 17:15 Sunny 69 20.3 34 0.9 28 28 SSW 13 20 30 1016 10 16.0934 0 0
5:35 pm 17:35 Sunny 70 21.2 34 1.1 26 26 SSW 15 24 29.97 1015 10 16.0934 0 0
5:55 pm 17:55 Sunny 70 21.1 33 0.6 26 26 SSW 20 31 29.97 1015 10 16.0934 0 0
6:15 pm 18:15 Sunny 70 21.1 33 0.7 26 26 SSW 13 20 29.97 1015 10 16.0934 0 0
6:35 pm 18:35 Sunny 67 19.6 32 0 27 27 SSW 10 17 30 1016 10 16.0934 0 0
6:55 pm 18:55 Sunny 66 18.8 35 1.5 32 32 SSW 7 11 30 1016 10 16.0934 0 0
7:15 pm 19:15 Sunny 64 18 36 2.3 35 35 S 7 11 30 1016 10 16.0934 0 0
7:35 pm 19:35 Sunny 63 17.4 40 4.3 42 42 S 6 9 30 1016 10 16.0934 0 0
7:55 pm 19:55 Sunny 61 16.2 37 2.9 41 41 S 7 11 30.03 1017 10 16.0934 0 0
8:15 pm 20:15 Clear 59 14.9 36 2.3 43 43 SSE 7 11 30.03 1017 10 16.0934 0 0
8:35 pm 20:35 Clear 60 15.4 35 1.7 40 40 SSE 6 9 30.03 1017 10 16.0934 0 0
8:55 pm 20:55 Clear 58 14.6 35 1.5 41 41 SSE 7 11 30.06 1018 10 16.0934 0 0
9:15 pm 21:15 Clear 55 12.9 36 2.4 49 49 SSE 6 9 30.09 1019 10 16.0934 0 0
9:35 pm 21:35 Clear 54 12.2 37 2.8 53 53 SSE 7 11 30.09 1019 10 16.0934 0 0
9:55 pm 21:55 Clear 56 13.3 37 2.5 48 48 ESE 6 9 30.09 1019 10 16.0934 0 0
10:15 pm 22:15 Clear 56 13.5 36 2.4 47 47 SE 9 15 30.09 1019 10 16.0934 0 0
10:35 pm 22:35 Clear 57 14 37 3 48 48 SSE 14 22 30.09 1019 10 16.0934 0 0
10:55 pm 22:55 Clear 58 14.2 36 2.3 45 45 S 16 26 30.06 1018 10 16.0934 0 0
11:15 pm 23:15 Clear 57 13.8 36 2.1 45 45 S 15 24 30.09 1019 10 16.0934 0 0
11:35 pm 23:35 Clear 55 13 36 2.1 48 48 S 14 22 30.09 1019 10 16.0934 0 0
11:55 pm 23:55 Clear 55 12.6 37 2.5 50 50 S 15 24 30.09 1019 10 16.0934 0 0

Powered by AerisWeather